Regional Weather Roundup
Issued by NWS

Home | Current Version | Previous Version | Graphics & Text | Print | Product List | Glossary On
Versions: 1 2 3 4 5 6 7 8 9 10 11 12 13 14 15 16 17 18 19 20 21 22 23 24 25 26 27 28 29 30 31 32 33 34 35 36 37 38 39 40 41 42 43 44 45 46 47 48 49 50
000
ASUS45 KABQ 241701
RWRNM
NEW MEXICO REGIONAL WEATHER ROUNDUP
NATIONAL WEATHER SERVICE ALBUQUERQUE NM
1100 AM MDT FRI MAR 24 2017

NOTE: "FAIR" MEANS FEW OR NO CLOUDS BELOW 12,000 FEET AGL WITH NO
       SIGNIFICANT WEATHER OR OBSTRUCTIONS TO VISION.

      THIS PRODUCT IS RELEASED AS TWO VERSIONS.  ONE VERSION NEAR
      THE TOP OF THE HOUR CONTAINING PRELIMINARY DATA FROM ALBUQUERQUE
      AND OTHER STATIONS.  A FINAL VERSION WITH ADDITIONAL DATA IS
      ISSUED ABOUT 10 MINUTES AFTER THE HOUR.

NMZ501-503-504-510>518-241800-
NORTHWEST PLATEAU/NORTHCENTRAL MOUNTAINS

CITY           SKY/WX    TMP DP  RH WIND       PRES   REMARKS
FARMINGTON     FAIR      52  28  39 NW21G32   30.06R
LOS ALAMOS     FAIR      44  32  62 E7        30.03R
SANTA FE       FAIR      49  36  61 N15       30.00R
TAOS             N/A     36  28  75 SW12      30.03R WCI  27
ANGEL FIRE     FLURRIES  34  29  83 NW3       30.00R

$$
NMZ402-403-502-505>509-241800-
WESTCENTRAL MOUNTAINS/SOUTHWEST MOUNTAINS

CITY           SKY/WX    TMP DP  RH WIND       PRES   REMARKS
GALLUP         FAIR      44  32  62 W14       30.21R
GRANTS         FAIR      49  30  48 NW26G39   30.15R
SILVER CITY    FAIR      53  28  38 W21G26    30.17R

$$
NMZ407-409-411-412-241800-
SOUTHERN DESERTS

CITY           SKY/WX    TMP DP  RH WIND       PRES   REMARKS
DEMING         FAIR      58  29  33 W15G23    30.16R
LAS CRUCES     FAIR      57  28  33 W20       30.13S
HOLLOMAN AFB   FAIR      58  24  26 NW12G23   30.11R
ALAMOGORDO     FAIR      57  23  26 NW6G17    30.09R
T OR C         FAIR      59  22  24 NW17G30   30.09R

$$
NMZ519>523-241800-
CENTRAL VALLEYS/CENTRAL HIGHLANDS

CITY           SKY/WX    TMP DP  RH WIND       PRES   REMARKS
ALBUQUERQUE    PTSUNNY   54  27  35 N25G33    30.04S
DOUBLE EAGLE   MOSUNNY   52  28  40 NW37G46   30.01R
MORIARTY ARPT  FAIR      54  30  40 NW29G38   30.01R
CLINES CORNERS FAIR      44  28  53 NW31G40   29.99R
BELEN          FAIR      56  24  29 NW17G36   30.05R
SOCORRO        FAIR      59  23  24 N18G29    30.05R

$$
NMZ524>526-539-540-241800-
SOUTHCENTRAL MOUNTAINS

CITY           SKY/WX    TMP DP  RH WIND       PRES   REMARKS
RUIDOSO        NOT AVBL

$$
NMZ527>531-241800-
NORTHEAST HIGHLANDS/NORTHEAST PLAINS

CITY           SKY/WX    TMP DP  RH WIND       PRES   REMARKS
LAS VEGAS      FAIR      53  26  35 NW35G44   29.88R
RATON          NOT AVBL
CLAYTON        CLOUDY    44  36  73 NW40G59   29.76R

$$
NMZ532>537-241800-
EASTCENTRAL PLAINS

CITY           SKY/WX    TMP DP  RH WIND       PRES   REMARKS
TUCUMCARI      PTSUNNY   60  31  33 N47G58    29.80R
CANNON AFB     CLOUDY    54  38  54 NW35G45   29.82R
CLOVIS AIRPORT PTSUNNY   57  32  38 NW33G41   29.81R

$$
NMZ028-029-538-241800-
SOUTHEAST PLAINS

CITY           SKY/WX    TMP DP  RH WIND       PRES   REMARKS
ROSWELL        FAIR      66  26  22 NW31G48   29.95R
ARTESIA        FAIR      68  28  22 NW28G36   29.90R
CARLSBAD       FAIR      67  27  22 W25G38    29.91R
HOBBS          SUNNY     63  25  23 W28G38    29.90S


$$




USA.gov is the U.S. government's official web portal to all federal, state and local government web resources and services.